This demonstration page uses our WeatherBlox Daily Observations layout. Learn more.

Hourly Observations for January 17, 2017

Temp ( °F °C ) Dew Point ( °F °C ) Humidity (%) Winds ( mph kmh ) Pressure ( in mb ) Visibility ( mi km ) Precip ( " mm )
12:07 am 00:07 Cloudy 33 0.6 30 -1.1 89 89 NW 10 17 30.06 1018 8 12.87472 0 0
12:54 am 00:54 Cloudy 33 0.6 30 -1.1 89 89 NNW 10 17 30.04 1017 10 16.0934 0 0
1:10 am 01:10 Cloudy 34 1 30 -1 87 87 NNW 14 22 30.06 1018 10 16.0934 0 0
1:49 am 01:49 Cloudy 32 0 28 -2 87 87 NW 10 17 30.09 1019 10 16.0934 0 0
1:54 am 01:54 Cloudy 32 0 29 -1.7 88 88 NW 10 17 30.05 1018 10 16.0934 0 0
2:04 am 02:04 Cloudy 32 0 28 -2 87 87 NW 13 20 30.09 1019 10 16.0934 0 0
2:54 am 02:54 Cloudy 31 -0.6 27 -2.8 85 85 NW 10 17 30.07 1018 10 16.0934 0 0
3:00 am 03:00 Cloudy 31 -0.6 27 -2.8 85 85 NW 8 13 30.09 1019 10 16.0934 0 0
3:13 am 03:13 Cloudy 31 -0.6 27 -2.8 85 85 WNW 8 13 30.09 1019 10 16.0934 0 0
3:49 am 03:49 Cloudy 30 -1 25 -4 80 80 NW 13 20 30.09 1019 10 16.0934 0 0
3:54 am 03:54 Cloudy 30 -1.1 25 -3.9 82 82 NW 10 17 30.07 1018 10 16.0934 0 0
4:05 am 04:05 Mostly Cloudy 30 -1.1 24 -4.4 79 79 NW 10 17 30.09 1019 10 16.0934 0 0
4:16 am 04:16 Partly Cloudy 29 -1.7 25 -3.9 85 85 NW 9 15 30.09 1019 10 16.0934 0 0
4:54 am 04:54 Partly Cloudy 28 -2.2 23 -5 81 81 NW 12 19 30.07 1018 10 16.0934 0 0
5:03 am 05:03 Mostly Cloudy 28 -2 23 -5 80 80 NW 13 20 30.12 1020 10 16.0934 0 0
5:16 am 05:16 Partly Cloudy 28 -2 23 -5 80 80 NW 12 19 30.12 1020 10 16.0934 0 0
5:54 am 05:54 Clear 26 -3.3 20 -6.7 78 78 NW 10 17 30.09 1019 10 16.0934 0 0
6:37 am 06:37 Mostly Cloudy 26 -3.3 20 -6.7 78 78 NW 10 17 30.18 1022 10 16.0934 0 0
6:54 am 06:54 Partly Cloudy 25 -3.9 19 -7.2 78 78 NW 8 13 30.13 1020 10 16.0934 0 0
7:54 am 07:54 Sunny 24 -4.4 19 -7.2 81 81 NW 9 15 30.13 1020 10 16.0934 0 0
8:54 am 08:54 Sunny 25 -3.9 20 -6.7 81 81 NW 7 11 30.15 1021 10 16.0934 0 0
9:54 am 09:54 Sunny 28 -2.2 21 -6.1 75 75 NW 7 11 30.16 1022 10 16.0934 0 0
10:54 am 10:54 Sunny 31 -0.6 24 -4.4 76 76 WNW 7 11 30.17 1022 10 16.0934 0 0
11:54 am 11:54 Sunny 32 0 25 -3.9 75 75 W 7 11 30.14 1021 10 16.0934 0 0
12:54 pm 12:54 Sunny 33 0.6 27 -2.8 78 78 WSW 6 9 30.12 1020 10 16.0934 0 0
1:54 pm 13:54 Sunny 36 2.2 29 -1.7 76 76 WSW 9 15 30.11 1020 10 16.0934 0 0
2:54 pm 14:54 Sunny 37 2.8 29 -1.7 73 73 W 6 9 30.11 1020 10 16.0934 0 0
3:54 pm 15:54 Sunny 37 2.8 30 -1.1 76 76 WSW 8 13 30.13 1020 10 16.0934 0 0
4:54 pm 16:54 Sunny 36 2.2 30 -1.1 79 79 SW 7 11 30.14 1021 10 16.0934 0 0
5:54 pm 17:54 Clear 31 -0.6 28 -2.2 89 89 S 3 6 30.15 1021 10 16.0934 0 0
6:54 pm 18:54 Clear 30 -1.1 29 -1.7 96 96 S 3 6 30.15 1021 10 16.0934 0 0
7:54 pm 19:54 Clear 28 -2.2 26 -3.3 92 92 SSE 5 7 30.14 1021 7 11.26538 0 0
8:54 pm 20:54 Clear with Mist and Fog 28 -2.2 27 -2.8 96 96 Calm 30.13 1020 5 8.0467 0 0
9:11 pm 21:11 Clear with Mist and Fog 28 -2.2 27 -2.8 96 96 S 3 6 30.18 1022 1.5 2.41401 0 0
9:14 pm 21:14 Clear with Mist and Fog 28 -2 27 -3 93 93 S 3 6 30.18 1022 6 9.65604 0 0
9:26 pm 21:26 Mostly Clear with Mist and Fog 27 -3 25 -4 93 93 S 5 7 30.18 1022 6 9.65604 0 0
9:54 pm 21:54 Clear with Mist and Fog 25 -3.9 24 -4.4 96 96 SSE 7 11 30.14 1021 6 9.65604 0 0
10:54 pm 22:54 Clear with Mist and Fog 26 -3.3 25 -3.9 96 96 S 7 11 30.15 1021 5 8.0467 0 0
11:54 pm 23:54 Clear 28 -2.2 26 -3.3 92 92 S 5 7 30.16 1021 9 14.48406 0 0

Powered by AerisWeather